Погода Реболы

Погода Реболы : погода сейчас, прогноз погоды и архив. Всё, что Вы хотите узнать о погоде Реболы!

Поиск расширенной информации на нашем сайте:

Другие новости

Новости СМИ2

Главная страница сайта

Новости сайта

03.07.2017

Напоминаем, что на нашем специализированном сайте Метеоцентр.Азия вы можете получить высокодетализированные автоматические прогнозы погоды по пунктам России, СНГ и мира в авиационном формате (включающие направление и скорость ветра, видимость, явления погоды, количество и форму облачности, нижнюю и верхнюю границу облачности).

Рекомендуем: помещения в аренду тут снять офис у метро Баррикадная на выгодных условиях

Погода Реболы - сегодня

Время (UTC), дата Ветер
(°,м/с) 
Видим.   Явления Облачность Т
(°С)
Тd
(°С)
f(%) Тe
(°С)
Pmin
(гПа)
dP
(гПа)
Po
(мм)
O2
(г/м3)
Тmin Tmax R s Состояние
почвы
15 14.10.17 150 (ЮВ) 8000 м  слаб. ливневой дождь  9/9 600 м кучево-дожд. 
[Cb cap]
+4.4 +2.6 88 +5  1008.7  -1.2  740  293      0.4     
18 14.10.17 190 (Ю) 22000 м  {ливн. осадки}  10/10 720 м кучево-дожд. 
[Cb cap]
+4.1 +2.9 92 +5  1007.5  -1.2  739  293    +7  0.4     
21 14.10.17 170 (Ю) 24000 м    10/10 600 м кучево-дожд. 
[Cb cap]
+3.4 +2.3 92 +4  1005.6  -1.9  738  293           
00 15.10.17 тихо ()   8000 м  слаб. ливневой дождь  10/10 540 м кучево-дожд. 
[Cb cap]
+3.4 +2 91 +3  1004.5  -1.1  737  293           
03 15.10.17 310 (СЗ) 8000 м  {ливн. осадки}  10/10 330 м кучево-дожд. 
[Cb cap]
+2.7 +1.7 93 +3  1004.7  -0.1  737  294  +2.7       
06 15.10.17 310 (СЗ) 24000 м  {ливн. осадки}  9/8 420 м кучево-дожд., средняя 
[Cb cap|Ac trans]
+2.7 +1.8 94 +3  1005.6  0.8  737  294  +2.1       
09 15.10.17 330 (СЗ) 25000 м    9/9 420 м кучево-дожд. 
[Cb cap]
+4.5 +2.6 87 +4  1007.2  1.7  739  292           
12 15.10.17 320 (СЗ) 24000 м  {ливн. осадки}  9/9 400 м кучево-дожд. 
[Cb cap]
+4.5 +2.7 88 +4  1009.2  740  293           
15 15.10.17 300 (СЗ) 25000 м    3/3 300 м кучево-дожд. 
[Cb cap]
+2.3 +0.8 90 +3  1010.8  1.4  741  296      0.0     
18 15.10.17 270 (З) 22000 м    3/3 300 м кучево-дожд. 
[Cb cap]
+0.5 -0.2 95 +1  1012.8  1.8  743  299    +5  0.0     
21 15.10.17 350 (С) 21000 м    10/10 480 м 
[Sc]
+2.2 +0 85 +3  1012.9  0.2  743  297           
00 16.10.17 210 (ЮЗ) 20000 м    10/10 450 м 
[Sc]
+1.7 +0.6 92 +2  1012.8  0.1  743  297           
03 16.10.17 140 (ЮВ) 22000 м    10/10 420 м 
[Sc]
+2.7 -0.2 81 +2  1011.1  -1.6  741  296  -0.6         
06 16.10.17 160 (Ю) 23000 м    10/10 420 м 
[Sc]
+2.4 +0.4 87 +2  1009  -2  740  295  +0.5         
09 16.10.17 160 (Ю) 25000 м    10/10 420 м 
[Sc]
+3.5 +1.4 86 +2  1004.6  -4.2  737  293           
12 16.10.17 170 (Ю) 9000 м  слаб. ливневой дождь  10/10 300 м кучево-дожд. 
[Cb cap]
+4.6 +3.3 91 +2  998.6  -5.8  732  290           
15 16.10.17 210 (ЮЗ) 4{11}  8000 м  слаб. ливневой дождь  10/10 300 м кучево-дожд. 
[Cb cap]
+6.4 +5.1 91 +5  994.4  -3.8  730  286         
18 16.10.17 270 (З) 4{10}  25000 м  {ливн. осадки}  ясно 
+6.3 +4 85 +5  994.9  0.4  730  287    +7.3     
21 16.10.17 260 (З) 7-12{12}  26000 м    ясно 
+4.8 +1.9 81 +2  994.7  -0.3  730  289           
00 17.10.17 260 (З) 5{12}  24000 м    4/4 300 м 
[Sc]
+4.8 +1.1 77 +3  994.8  0.1  730  289           
03 17.10.17 280 (З) 7-14{15}  23000 м    10/10 360 м 
[Sc]
+5.7 +1 72 +3  995  0.3  730  288  +4    0.5     
06 17.10.17 290 (З) 7-13{15}  24000 м    8/6 400 м кучево-дожд., средняя 
[Cb cap|Ac und]
+6 +1 70 +3  997.3  2.2  732  288  +4         
09 17.10.17 290 (З) 5-11{17}  25000 м    9/9 420 м кучево-дожд. 
[Cb cap]
+6.4 +1.5 71 +5  1000  2.6  734  289           
12 17.10.17 280 (З) 5{12}  27000 м    8/6 420 м средняя 
[Sc|Ac und]
+6.9 +1.6 69 +5  1001.3  1.4  735  288           
15 17.10.17 270 (З) 4{12}  26000 м    9/8 420 м средняя 
[Sc|Ac und]
+6.4 +1.7 72 +5  1001.1  -0.3  734  289           
Время (UTC), дата Ветер
(°,м/с) 
Видим.   Явления Облачность Т
(°С)
Тd
(°С)
f(%) Тe
(°С)
Pmin
(гПа)
dP
(гПа)
Po
(мм)
O2
(г/м3)
Тmin Tmax R s Состояние
почвы

Для получения пояснительной информации подведите курсор к названию столбца.

ПОГОДА Реболы - архив

Всё, что Вы хотите узнать о погоде Реболы - удобно и подробно!

Выберите нужную дату (начиная с 1 января 2015* года) и нажмите кнопку "Найти".
Будут отображены архивные сводки погоды по пункту Реболы, начиная с указанной даты.


Отображать данные в формате CSV (для использования в таблицах Excel)


Внимание! Наш архив погоды предназначен исключительно для личного некоммерческого использования в познавательных целях. Если Вам необходимы официальные справки о состоянии погоды (для производственных, юридических, коммерческих и т.п. целей), обращайтесь в органы Росгидромета.

*Примечание: данная дата относится к архиву по метеостанциям СССР (Россия, СНГ, Балтия).
Архив по метеостанциям Зарубежной Европы и Азии (кроме Китая) хранится 10 дней, по другим регионам земного шара (Китай, Африка, Америка, Австралия, Океания) - 1 день.

Реболы - район местоположения метеостанции


Название, широта, долгота, высота метеостанции:
Реболы 63.8°ш. 30.8°д. 182 м над ур. моря [Российская Федерация]

Дополнительная информация

В oтличие oт бoльшинства пoгoдных сайтoв мы публикуем пoдрoбную метеoинфoрмацию в детальнoм прoфессиoнальнoм фoрмате.

Характеристики температуры и влажнoсти вoздуха измеряются на высoте 2 м в тени вдали oт зданий и деревьев.
Скoрoсть ветра измеряется на высoте 10 м (на урoвне рoста челoвека скoрoсть ветра ниже в 1.5-2 раза). Если метеoстанция нахoдится в гoрoде или в лесу, тo скoрoсть ветра занижена на 2-4 м/с пo сравнению с oткрытым местoм. Скoрoсть ветра над акватoриями крупных рек и oзёр, а также на вершинах хoлмoв на 2-5 м/с выше, чем в oбычных услoвиях.
Атмoсфернoе давление в разных тoчках местнoсти мoжет значительнo oтличаться oт давления на метеoстанции, в зависимoсти oт услoвий рельефа (при пoдъёме на 10 м давление пoнижается примернo на 1 мм рт.ст.).